TimeCDT,TemperatureF,Dew PointF,Humidity,Sea Level PressureIn,VisibilityMPH,Wind Direction,Wind SpeedMPH,Gust SpeedMPH,PrecipitationIn,Events,Conditions,WindDirDegrees,DateUTC
12:53 AM,69.1,66.9,93,30.15,10.0,NE,5.8,-,0.02,Rain,Light Rain,50,2013-05-25 05:53:00
1:53 AM,69.1,66.9,93,30.13,10.0,East,6.9,-,0.01,,Partly Cloudy,80,2013-05-25 06:53:00
2:53 AM,69.1,66.9,93,30.11,10.0,East,4.6,-,0.02,,Partly Cloudy,100,2013-05-25 07:53:00
3:53 AM,69.1,66.9,93,30.12,10.0,ENE,3.5,-,0.01,,Clear,70,2013-05-25 08:53:00
4:53 AM,69.1,68.0,96,30.11,10.0,ENE,3.5,-,0.02,,Clear,60,2013-05-25 09:53:00
5:53 AM,70.0,68.0,93,30.11,10.0,East,5.8,-,0.01,,Clear,80,2013-05-25 10:53:00
6:53 AM,70.0,68.0,93,30.11,10.0,East,6.9,-,0.01,,Clear,100,2013-05-25 11:53:00
7:53 AM,72.0,70.0,93,30.11,10.0,ESE,9.2,-,0.01,,Clear,110,2013-05-25 12:53:00
8:53 AM,73.9,71.1,91,30.14,10.0,SE,8.1,-,0.01,,Mostly Cloudy,130,2013-05-25 13:53:00
9:34 AM,73.4,71.6,94,30.18,10.0,SE,8.1,-,0.01,,Mostly Cloudy,140,2013-05-25 14:34:00
9:46 AM,75.2,71.6,89,30.17,10.0,SE,8.1,-,0.02,,Mostly Cloudy,130,2013-05-25 14:46:00
9:53 AM,75.0,71.1,87,30.16,10.0,SE,9.2,-,0.02,,Mostly Cloudy,140,2013-05-25 14:53:00
10:10 AM,75.2,71.6,89,30.17,10.0,ESE,10.4,-,N/A,,Scattered Clouds,120,2013-05-25 15:10:00
10:53 AM,79.0,71.1,77,30.15,10.0,SE,11.5,-,0.01,,Clear,140,2013-05-25 15:53:00
11:53 AM,81.0,71.1,72,30.15,10.0,SSE,12.7,-,0.01,,Scattered Clouds,150,2013-05-25 16:53:00
12:53 PM,81.0,70.0,69,30.14,10.0,South,12.7,-,0.01,,Clear,180,2013-05-25 17:53:00
1:53 PM,82.0,68.0,62,30.12,10.0,South,15.0,-,0.01,,Clear,170,2013-05-25 18:53:00
2:53 PM,82.9,68.0,60,30.10,10.0,South,15.0,24.2,0.02,,Partly Cloudy,180,2013-05-25 19:53:00
3:53 PM,82.9,69.1,63,30.09,10.0,South,15.0,-,0.01,,Clear,180,2013-05-25 20:53:00
4:53 PM,82.0,66.9,60,30.08,10.0,South,12.7,19.6,N/A,,Partly Cloudy,180,2013-05-25 21:53:00
5:53 PM,77.0,64.9,66,30.08,10.0,SW,5.8,-,0.01,,Clear,220,2013-05-25 22:53:00
6:53 PM,75.9,68.0,76,30.07,10.0,West,5.8,-,0.01,,Clear,260,2013-05-25 23:53:00
7:53 PM,73.0,68.0,84,30.06,10.0,Calm,Calm,-,0.01,,Partly Cloudy,0,2013-05-26 00:53:00
8:53 PM,73.0,68.0,84,30.04,10.0,Calm,Calm,-,0.01,,Clear,0,2013-05-26 01:53:00
9:53 PM,71.1,68.0,90,30.06,10.0,Calm,Calm,-,N/A,,Clear,0,2013-05-26 02:53:00
10:53 PM,69.1,68.0,96,30.07,10.0,Calm,Calm,-,0.01,,Partly Cloudy,0,2013-05-26 03:53:00
11:53 PM,73.0,69.1,87,30.09,10.0,Calm,Calm,-,N/A,,Overcast,0,2013-05-26 04:53:00